Вернуться в каталог

NIMBUS 2 DEB

АктивенLEO
NORAD 25613·DEBRIS·🇺🇸 United States

Запущен May 15, 1966 с Vandenberg Space Force Base

Loading…

Ближайшие Пролёты (ближайшие 24 часа)

TLE

СвежийSource: Space-Track

Эпоха: Sep 13, 2026, 10:08 UTC

1 25613U 66040F   26256.42240689  .00001544  00000-0  19366-2 0  9990
2 25613 100.4604  57.7210 0028462 201.7514 187.4776 13.65922205951659

Отслеживайте NIMBUS 2 DEB в реальном времени с AllMySat

Download on the App Store